Weather past 2 weeks in Bantam, Cocos Islands

Now
77 °F

Lots of rain. Mostly cloudy.


Feels Like: 78 °F
Forecast: 80 / 87 °F
Wind: 17 mph from South

Location: Cocos Island Airport

Current Time: Dec 25, 2014 at 10:14:07 AM

Latest Report: Dec 25, 2014 at 9:32 AM


Visibility: 0 mi

Pressure: 29.59 "Hg

Humidity: 100%

Dew point: 77 °F

Location of BantamLocation

Historic Weather in Bantam — Graph

°F

Bantam temperature yesterday

Maximum temperature yesterday: 84 °F (at 10:30 AM)
Minimum temperature yesterday: 77 °F (at 3:30 AM)
Average temperature yesterday: 80 °F

Past Weeks' High & Low Weather Summary

 TemperatureHumidityPressure
High86 °F (Dec 10, 1:30 PM)100% (Dec 25, 7:30 AM)29.92 "Hg (Dec 25, 7:30 AM)
Low77 °F (Dec 12, 6:00 AM)58% (Dec 14, 11:30 AM)29.59 "Hg (Dec 25, 5:00 AM)
Average81 °F78%29.82 "Hg
* Reported Dec 10 8:30 AM — Dec 25 8:30 AM, Bantam, Weather by CustomWeather, © 2014

Note: Actual official high and low records may vary slightly from our data, if they occured in-between our weather recording intervals... More about our weather records

Advertising

Bantam weather history for previous 24 hours

 ConditionsComfort  
Time TempWeatherWind HumidityBarometerVisibility
8:30 AM
Dec 25
77 °FCloudy.29 mph100%29.62 "Hg1 mi
7:30 AM77 °FHeavy rain. Cloudy.26 mph100%29.62 "Hg1 mi
7:00 AM77 °FHeavy rain. Cloudy.29 mph94%29.62 "Hg1 mi
6:32 AM79 °FRain. Overcast.25 mph94%29.62 "Hg2 mi
5:30 AM79 °FRain. Overcast.22 mph94%29.62 "Hg3 mi
5:00 AM79 °FRain. Overcast.23 mph94%29.59 "Hg3 mi
4:30 AM79 °FHeavy rain. Overcast.23 mph94%29.62 "Hg2 mi
4:00 AM79 °FLight rain. Overcast.22 mph94%29.62 "Hg4 mi
3:30 AM79 °FLight rain. Overcast.21 mph94%29.62 "Hg4 mi
2:30 AM79 °FLight rain. Overcast.21 mph94%29.62 "Hg4 mi
2:00 AM79 °FRain. Overcast.20 mph94%29.65 "Hg3 mi
1:30 AM79 °FLight rain. Overcast.18 mph94%29.65 "Hg4 mi
12:30 AM77 °FHeavy rain. Overcast.21 mph94%29.68 "Hg1 mi
12:00 AM81 °FSprinkles. Partly cloudy.20 mph89%29.71 "HgN/A
11:30 PM
Dec 24
81 °FSprinkles. Passing clouds.17 mph89%29.71 "HgN/A
11:00 PM79 °FDrizzle. Overcast.18 mph94%29.71 "Hg6 mi
10:30 PM81 °FLight rain. Partly cloudy.18 mph89%29.74 "HgN/A
9:32 PM79 °FRain. Overcast.17 mph94%29.74 "Hg2 mi
8:35 PM79 °FPartly cloudy.23 mph94%29.74 "Hg4 mi
8:34 PM79 °FPartly cloudy.22 mph94%29.71 "Hg5 mi
8:00 PM81 °FDrizzle. Overcast.21 mph89%29.71 "Hg6 mi
7:30 PM79 °FOvercast.21 mph94%29.71 "HgN/A
6:30 PM79 °FCloudy.22 mph94%29.71 "HgN/A
5:30 PM81 °FPartly sunny.23 mph84%29.68 "HgN/A
5:00 PM81 °FCloudy.23 mph89%29.68 "HgN/A
4:30 PM81 °FSprinkles. Scattered clouds.25 mph89%29.68 "Hg4 mi
4:00 PM81 °FSprinkles. Partly sunny.24 mph89%29.68 "Hg4 mi
3:30 PM81 °FSprinkles. Broken clouds.25 mph89%29.68 "Hg4 mi
2:30 PM79 °FSprinkles. Broken clouds.24 mph94%29.71 "Hg3 mi
1:30 PM81 °FScattered clouds.24 mph84%29.74 "Hg5 mi
1:00 PM81 °FSprinkles. Partly sunny.25 mph89%29.74 "Hg4 mi
12:30 PM81 °FDrizzle. Partly sunny.22 mph89%29.74 "HgN/A
12:00 PM81 °FPartly sunny.24 mph84%29.74 "HgN/A
11:30 AM81 °FSprinkles. Scattered clouds.22 mph84%29.77 "Hg5 mi
11:00 AM81 °FDrizzle. Partly sunny.24 mph84%29.77 "HgN/A
10:30 AM84 °FScattered showers. Partly sunny.22 mph74%29.77 "HgN/A
10:00 AM82 °FBroken clouds.22 mph79%29.77 "HgN/A
Weather by CustomWeather, © 2014

See weather overviewHow to use our weather pages